Starlink 31080

operational
NORAD ID: 58603 Int'l Des: 2023-200 Owner: SPXS Country: US Constellation: starlink
LEOCIRCULAR

Über Starlink 31080

Beschreibung wird geladen...

Live-Position

3D-Globus wird geladen...

Nächste Überflüge

Höhenverlauf

Altitude vs Time

uPlot chart will show altitude changes over time

Zweizeiliger Elementsatz

1 58603U 23200Q 25341.61217389 .00001251 00000-0 10764-3 0 9991
2 58603 43.0020 310.5554 0000824 265.9452 94.1296 15.02532681109557
Epoch: 7. Dez. 2025 • Age: 14 hours

Aktueller Status

Höhe 561.2 km
Geschwindigkeit 7.58 km/s
Subsatellitenpunkt -12.80°S, 141.58°E
Startdatum 19. Dez. 2023
Alter 1.9 years
Typ internet

Technische Details

Klassifizierung Payload
Masse 730.00 kg
Trockenmasse 700.00 kg
Gesamtmasse 730.00 kg
Länge 0.30 m
Durchmesser 4.10 m
Spannweite 29.00 m
Form Box + pan
Hersteller SPXS
Bus-Typ Starlink V2M
Phasenstatus In Orbit
Besitzer/Staat SPXS/US

Große Konstellationen

Loading constellations...